• In Slovakia
  • List of Countries
  • For 7 days
  • Water Temperature
  • Satellite Maps
  • Weather Map
  • Weather Widgets
  • user-avatar
    Login

    Hourly Weather Ouahigouya

    Today, 22 October, Monday

    Time Temperature Precipitation Wind Pressure Humidity
    00:00 +33°C° 0 mm 3 mps 728 mmHg 19%
    01:00 +31°C° 0 mm 3 mps 728 mmHg 20%
    02:00 +31°C° 0 mm 2 mps 728 mmHg 22%
    03:00 +30°C° 0 mm 2 mps 727 mmHg 23%
    04:00 +30°C° 0 mm 2 mps 728 mmHg 24%
    05:00 +29°C° 0 mm 2 mps 728 mmHg 26%
    06:00 +29°C° 0 mm 2 mps 728 mmHg 27%
    07:00 +31°C° 0 mm 2 mps 729 mmHg 25%
    08:00 +34°C° 0 mm 2 mps 729 mmHg 23%
    09:00 +36°C° 0 mm 2 mps 730 mmHg 21%
    10:00 +37°C° 0 mm 1 mps 729 mmHg 19%
    11:00 +39°C° 0 mm 1 mps 729 mmHg 16%
    12:00 +38°C° 0 mm 0 mps 729 mmHg 14%
    13:00 +41°C° 0 mm 2 mps 728 mmHg 13%
    14:00 +43°C° 0 mm 3 mps 728 mmHg 11%
    15:00 +44°C° 0 mm 4 mps 727 mmHg 10%
    16:00 +42°C° 0 mm 4 mps 727 mmHg 11%
    17:00 +40°C° 0 mm 3 mps 727 mmHg 11%
    18:00 +38°C° 0 mm 3 mps 727 mmHg 12%
    19:00 +38°C° 0 mm 3 mps 728 mmHg 12%
    20:00 +37°C° 0 mm 3 mps 728 mmHg 12%
    21:00 +36°C° 0 mm 3 mps 729 mmHg 13%
    22:00 +35°C° 0 mm 3 mps 729 mmHg 13%
    23:00 +35°C° 0 mm 3 mps 729 mmHg 14%

    Tomorrow, 23 October, Tuesday

    Time Temperature Precipitation Wind Pressure Humidity
    00:00 +34°C° 0 mm 2 mps 729 mmHg 14%
    01:00 +32°C° 0 mm 2 mps 729 mmHg 15%
    02:00 +31°C° 0 mm 1 mps 728 mmHg 16%
    03:00 +30°C° 0 mm 1 mps 728 mmHg 17%
    04:00 +30°C° 0 mm 1 mps 728 mmHg 18%
    05:00 +29°C° 0 mm 1 mps 728 mmHg 19%
    06:00 +29°C° 0 mm 1 mps 728 mmHg 20%
    07:00 +31°C° 0 mm 1 mps 729 mmHg 17%
    08:00 +34°C° 0 mm 1 mps 729 mmHg 14%
    09:00 +37°C° 0 mm 1 mps 730 mmHg 12%
    10:00 +40°C° 0 mm 2 mps 730 mmHg 10%
    11:00 +42°C° 0 mm 3 mps 729 mmHg 9%
    12:00 +45°C° 0 mm 5 mps 729 mmHg 7%
    13:00 +45°C° 0 mm 5 mps 728 mmHg 7%
    14:00 +46°C° 0 mm 6 mps 728 mmHg 7%
    15:00 +46°C° 0 mm 6 mps 727 mmHg 7%
    16:00 +43°C° 0 mm 5 mps 727 mmHg 8%
    17:00 +42°C° 0 mm 4 mps 727 mmHg 8%
    18:00 +39°C° 0 mm 3 mps 727 mmHg 9%
    19:00 +38°C° 0 mm 3 mps 728 mmHg 10%
    20:00 +37°C° 0 mm 3 mps 728 mmHg 10%
    21:00 +36°C° 0 mm 3 mps 728 mmHg 11%
    22:00 +35°C° 0 mm 2 mps 728 mmHg 12%
    23:00 +34°C° 0 mm 2 mps 728 mmHg 12%

    Day after tomorrow, 24 October, Wednesday

    Time Temperature Precipitation Wind Pressure Humidity
    00:00 +34°C° 0 mm 2 mps 728 mmHg 13%
    01:00 +32°C° 0 mm 2 mps 728 mmHg 14%
    02:00 +32°C° 0 mm 2 mps 727 mmHg 15%
    03:00 +31°C° 0 mm 2 mps 727 mmHg 16%
    04:00 +30°C° 0 mm 2 mps 727 mmHg 17%
    05:00 +30°C° 0 mm 2 mps 727 mmHg 19%
    06:00 +29°C° 0 mm 2 mps 727 mmHg 20%
    07:00 +32°C° 0 mm 2 mps 728 mmHg 19%
    08:00 +35°C° 0 mm 2 mps 729 mmHg 17%
    09:00 +37°C° 0 mm 2 mps 729 mmHg 16%
    10:00 +39°C° 0 mm 2 mps 729 mmHg 14%
    11:00 +40°C° 0 mm 1 mps 729 mmHg 13%
    12:00 +42°C° 0 mm 1 mps 728 mmHg 11%
    13:00 +42°C° 0 mm 1 mps 728 mmHg 10%
    14:00 +43°C° 0 mm 2 mps 727 mmHg 10%
    15:00 +44°C° 0 mm 3 mps 726 mmHg 9%
    16:00 +42°C° 0 mm 2 mps 726 mmHg 10%
    17:00 +40°C° 0 mm 2 mps 726 mmHg 12%
    18:00 +39°C° 0 mm 2 mps 726 mmHg 13%
    19:00 +38°C° 0 mm 2 mps 726 mmHg 14%
    20:00 +37°C° 0 mm 2 mps 727 mmHg 15%
    21:00 +36°C° 0 mm 2 mps 727 mmHg 16%
    22:00 +36°C° 0 mm 2 mps 727 mmHg 17%
    23:00 +35°C° 0 mm 2 mps 727 mmHg 18%

    25 October, Thursday

    Time Temperature Precipitation Wind Pressure Humidity
    00:00 +35°C° 0 mm 2 mps 727 mmHg 19%
    01:00 +34°C° 0 mm 2 mps 727 mmHg 20%
    02:00 +32°C° 0 mm 2 mps 726 mmHg 21%
    03:00 +32°C° 0 mm 2 mps 726 mmHg 22%
    04:00 +31°C° 0 mm 3 mps 726 mmHg 24%
    05:00 +31°C° 0 mm 3 mps 726 mmHg 27%
    06:00 +30°C° 0 mm 4 mps 727 mmHg 29%
    07:00 +32°C° 0 mm 5 mps 727 mmHg 33%
    08:00 +34°C° 0 mm 6 mps 728 mmHg 36%
    09:00 +35°C° 0 mm 7 mps 729 mmHg 40%
    10:00 +38°C° 0 mm 6 mps 728 mmHg 36%
    11:00 +39°C° 0 mm 6 mps 728 mmHg 32%
    12:00 +41°C° 0 mm 6 mps 728 mmHg 28%
    13:00 +42°C° 0 mm 5 mps 727 mmHg 26%
    14:00 +42°C° 0 mm 4 mps 726 mmHg 24%
    15:00 +43°C° 0 mm 3 mps 726 mmHg 21%
    16:00 +41°C° 0 mm 2 mps 726 mmHg 22%
    17:00 +40°C° 0 mm 2 mps 726 mmHg 23%
    18:00 +39°C° 0 mm 1 mps 726 mmHg 24%
    19:00 +39°C° 0 mm 2 mps 727 mmHg 24%
    20:00 +38°C° 0 mm 2 mps 727 mmHg 25%
    21:00 +38°C° 0 mm 2 mps 728 mmHg 26%
    22:00 +37°C° 0 mm 2 mps 728 mmHg 27%
    23:00 +37°C° 0 mm 2 mps 728 mmHg 29%

    26 October, Friday

    Time Temperature Precipitation Wind Pressure Humidity
    00:00 +36°C° 0 mm 2 mps 727 mmHg 30%
    01:00 +36°C° 0 mm 2 mps 727 mmHg 31%
    02:00 +35°C° 0 mm 3 mps 727 mmHg 33%
    03:00 +35°C° 0 mm 3 mps 726 mmHg 34%
    04:00 +34°C° 0 mm 3 mps 726 mmHg 36%
    05:00 +34°C° 0 mm 3 mps 727 mmHg 38%
    06:00 +33°C° 0 mm 3 mps 727 mmHg 41%
    07:00 +34°C° 0 mm 4 mps 728 mmHg 40%
    08:00 +35°C° 0 mm 5 mps 728 mmHg 39%
    09:00 +35°C° 0 mm 5 mps 729 mmHg 38%
    10:00 +37°C° 0 mm 5 mps 728 mmHg 35%
    11:00 +40°C° 0 mm 4 mps 728 mmHg 31%
    12:00 +41°C° 0 mm 4 mps 728 mmHg 27%
    13:00 +42°C° 0 mm 3 mps 727 mmHg 26%
    14:00 +41°C° 0 mm 2 mps 726 mmHg 25%
    15:00 +41°C° 0 mm 2 mps 726 mmHg 23%
    16:00 +40°C° 0 mm 2 mps 726 mmHg 25%
    17:00 +40°C° 0 mm 2 mps 726 mmHg 26%
    18:00 +39°C° 0 mm 2 mps 727 mmHg 28%
    19:00 +38°C° 0 mm 3 mps 727 mmHg 30%
    20:00 +38°C° 0 mm 3 mps 727 mmHg 31%
    21:00 +37°C° 0 mm 3 mps 728 mmHg 33%
    22:00 +36°C° 0 mm 3 mps 728 mmHg 35%
    23:00 +36°C° 0 mm 4 mps 727 mmHg 37%

    27 October, Saturday

    Time Temperature Precipitation Wind Pressure Humidity
    00:00 +35°C° 0 mm 4 mps 727 mmHg 39%
    01:00 +34°C° 0.1 mm 4 mps 727 mmHg 41%
    02:00 +33°C° 0.1 mm 5 mps 727 mmHg 44%
    03:00 +33°C° 0.1 mm 5 mps 726 mmHg 46%
    04:00 +33°C° 0.1 mm 5 mps 727 mmHg 47%
    05:00 +32°C° 0.1 mm 4 mps 727 mmHg 47%
    06:00 +31°C° 0.1 mm 3 mps 728 mmHg 47%
    07:00 +34°C° 0 mm 3 mps 728 mmHg 43%
    08:00 +35°C° 0 mm 3 mps 729 mmHg 39%
    09:00 +37°C° 0 mm 4 mps 729 mmHg 35%
    10:00 +38°C° 0 mm 3 mps 729 mmHg 32%
    11:00 +39°C° 0 mm 3 mps 728 mmHg 29%
    12:00 +40°C° 0 mm 2 mps 728 mmHg 27%
    13:00 +40°C° 0 mm 2 mps 727 mmHg 26%
    14:00 +40°C° 0 mm 1 mps 727 mmHg 25%
    15:00 +41°C° 0 mm 1 mps 726 mmHg 25%
    16:00 +40°C° 0 mm 1 mps 726 mmHg 26%
    17:00 +39°C° 0 mm 1 mps 727 mmHg 27%
    18:00 +39°C° 0 mm 1 mps 727 mmHg 28%
    19:00 +38°C° 0.1 mm 2 mps 727 mmHg 30%
    20:00 +38°C° 0.1 mm 2 mps 728 mmHg 31%
    21:00 +37°C° 0.1 mm 3 mps 728 mmHg 32%
    22:00 +37°C° 0 mm 3 mps 728 mmHg 34%
    23:00 +36°C° 0 mm 3 mps 728 mmHg 35%

    28 October, Sunday

    Time Temperature Precipitation Wind Pressure Humidity
    00:00 +35°C° 0 mm 3 mps 727 mmHg 37%
    01:00 +35°C° 0 mm 3 mps 727 mmHg 39%
    02:00 +34°C° 0 mm 3 mps 727 mmHg 42%
    03:00 +33°C° 0 mm 3 mps 727 mmHg 44%
    04:00 +33°C° 0 mm 3 mps 727 mmHg 46%
    05:00 +33°C° 0 mm 3 mps 728 mmHg 47%
    06:00 +31°C° 0 mm 3 mps 728 mmHg 49%
    07:00 +33°C° 0 mm 3 mps 729 mmHg 46%
    08:00 +35°C° 0 mm 4 mps 729 mmHg 43%
    09:00 +36°C° 0 mm 5 mps 730 mmHg 40%
    10:00 +37°C° 0 mm 4 mps 729 mmHg 38%
    11:00 +38°C° 0 mm 4 mps 729 mmHg 35%
    12:00 +40°C° 0 mm 4 mps 728 mmHg 32%
    13:00 +39°C° 0 mm 3 mps 728 mmHg 31%
    14:00 +40°C° 0 mm 2 mps 727 mmHg 29%
    15:00 +40°C° 0 mm 2 mps 727 mmHg 27%
    16:00 +39°C° 0 mm 1 mps 727 mmHg 28%
    17:00 +39°C° 0 mm 1 mps 727 mmHg 29%
    18:00 +37°C° 0 mm 1 mps 727 mmHg 30%
    19:00 +37°C° 0 mm 1 mps 728 mmHg 31%
    20:00 +36°C° 0 mm 1 mps 728 mmHg 32%
    21:00 +37°C° 0 mm 2 mps 728 mmHg 34%
    22:00 +36°C° 0.1 mm 2 mps 728 mmHg 35%
    23:00 +36°C° 0.1 mm 2 mps 728 mmHg 36%
    Show more